DW5775 Weather Reports


Display with metric or nautical units.
time (UTC)temp
F
wind
direction
speed
MPH
gust
MPH
rain 1hr
in
rain 24hr
in
rain mn
in
humidity
%
barometer
mb
20260831000051 69 194 0.0 2.0 0.00 0.33 0.33 93 1014.8
20260830234559 70 231 0.0 2.0 0.00 0.33 0.33 93 1015.0
20260830233049 70 208 0.0 1.0 0.00 0.33 0.33 94 1015.1
20260830231550 70 193 0.0 0.0 0.00 0.33 0.33 94 1015.1
20260830230048 70 224 0.0 0.0 0.00 0.33 0.33 94 1015.3
20260830224550 70 224 0.0 0.0 0.01 0.33 0.33 94 1015.5
20260830223048 71 224 0.0 1.0 0.01 0.33 0.33 94 1015.4
20260830221546 71 224 0.0 0.0 0.01 0.33 0.33 94 1015.6
20260830220046 71 224 0.0 0.0 0.01 0.33 0.33 92 1015.6
20260830214557 71 224 0.0 0.0 0.01 0.32 0.32 90 1015.7
20260830213045 72 224 0.0 0.0 0.01 0.32 0.32 91 1015.6
20260830211552 72 223 0.0 0.0 0.01 0.32 0.32 91 1015.4
20260830210049 72 224 0.0 1.0 0.01 0.32 0.32 89 1015.1
20260830204543 72 212 0.0 1.0 0.00 0.31 0.31 87 1015.1
20260830203049 72 187 1.0 3.0 0.00 0.31 0.31 86 1015.0
20260830201544 72 174 0.0 5.0 0.00 0.31 0.31 87 1015.2
20260830200038 72 201 0.0 2.0 0.00 0.31 0.31 89 1015.1
20260830194538 71 136 0.0 5.0 0.00 0.31 0.31 90 1015.1
20260830193041 71 201 0.0 4.0 0.00 0.31 0.31 91 1015.1
20260830191535 71 188 0.0 1.0 0.00 0.31 0.31 93 1015.3
20260830190038 70 162 1.0 3.0 0.00 0.31 0.31 93 1015.6
20260830184535 70 146 0.0 1.0 0.00 0.31 0.31 93 1015.4
20260830183033 71 197 0.0 3.0 0.00 0.31 0.31 92 1015.3
20260830181533 71 151 0.0 7.0 0.00 0.31 0.31 91 1015.3
20260830180036 71 197 1.0 4.0 0.00 0.31 0.31 93 1015.4
20260830174529 70 203 1.0 4.0 0.00 0.31 0.31 95 1015.6
20260830173036 69 193 0.0 2.0 0.00 0.31 0.31 96 1016.0
20260830171522 68 138 0.0 3.0 0.00 0.31 0.31 96 1016.2
20260830170027 68 205 0.0 4.0 0.00 0.31 0.31 96 1016.4
20260830164520 68 212 0.0 3.0 0.01 0.31 0.31 96 1016.9
20260830163031 67 222 0.0 0.0 0.01 0.31 0.31 96 1017.1
20260830161520 67 217 0.0 1.0 0.01 0.31 0.31 96 1017.5
20260830160019 67 215 0.0 1.0 0.02 0.31 0.31 96 1017.6
20260830154521 67 197 0.0 1.0 0.05 0.30 0.30 96 1017.8
20260830153018 66 6 0.0 1.0 0.08 0.30 0.30 96 1018.0
20260830151518 66 6 0.0 0.0 0.10 0.30 0.30 96 1017.9
20260830150017 66 6 0.0 0.0 0.10 0.28 0.28 96 1018.0
20260830144520 66 6 0.0 0.0 0.09 0.25 0.25 96 1018.2
20260830143013 66 6 0.0 1.0 0.08 0.22 0.22 96 1017.9
20260830141512 66 5 0.0 0.0 0.09 0.20 0.20 96 1017.8
20260830140010 67 4 0.0 0.0 0.08 0.18 0.18 96 1017.5
20260830134509 67 125 0.0 1.0 0.09 0.16 0.16 96 1017.4
20260830133009 68 197 0.0 0.0 0.08 0.14 0.14 96 1017.8
20260830131513 68 197 0.0 0.0 0.05 0.11 0.11 96 1017.8
20260830130007 69 198 0.0 0.0 0.04 0.10 0.10 96 1017.8
20260830124505 68 198 0.0 0.0 0.01 0.07 0.07 96 1018.0
20260830123005 68 198 0.0 0.0 0.00 0.06 0.06 96 1017.7
20260830121505 68 198 0.0 0.0 0.00 0.06 0.06 96 1017.7
20260830120007 68 198 0.0 0.0 0.00 0.06 0.06 96 1017.2
20260830114503 68 198 0.0 0.0 0.00 0.06 0.06 96 1016.8
20260830113002 67 198 0.0 0.0 0.00 0.06 0.06 96 1016.4
20260830111502 67 198 0.0 0.0 0.00 0.06 0.06 96 1016.1
20260830110000 67 198 0.0 0.0 0.00 0.06 0.06 96 1016.0
20260830104612 67 198 0.0 0.0 0.03 0.06 0.06 96 1016.1
20260830103116 67 198 0.0 0.0 0.03 0.06 0.06 96 1016.2
20260830101558 67 198 0.0 0.0 0.05 0.06 0.06 96 1016.4
20260830094557 67 198 0.0 0.0 0.03 0.03 0.03 96 1016.8
20260830093102 67 198 0.0 0.0 0.03 0.03 0.03 96 1016.9
20260830091553 67 197 0.0 0.0 0.01 0.01 0.01 95 1016.6
20260830090049 67 196 0.0 0.0 0.01 0.01 0.01 95 1017.0
20260830084548 67 197 0.0 0.0 0.00 0.00 0.00 95 1017.1
20260830083047 67 196 0.0 0.0 0.00 0.00 0.00 95 1017.4
20260830081550 67 196 0.0 0.0 0.00 0.00 0.00 95 1017.4
20260830080046 67 196 0.0 0.0 0.00 0.00 0.00 95 1017.4
20260830074548 67 197 0.0 0.0 0.00 0.00 0.00 95 1017.6
20260830073045 68 196 0.0 0.0 0.00 0.00 0.00 95 1017.5
20260830071612 67 197 0.0 0.0 0.00 0.00 0.00 95 1017.4
20260830070042 67 197 0.0 0.0 0.00 0.00 0.00 95 1017.4
20260830064542 67 197 0.0 0.0 0.00 0.00 0.00 95 1017.2
20260830063044 67 197 0.0 0.0 0.00 0.00 0.00 94 1017.2
20260830061539 67 197 0.0 0.0 0.00 0.00 0.00 94 1017.4
20260830060038 67 196 0.0 0.0 0.00 0.00 0.00 93 1017.4
20260830054536 68 197 0.0 0.0 0.00 0.00 0.00 93 1017.7
20260830053034 68 198 0.0 0.0 0.00 0.00 0.00 92 1017.8
20260830051537 68 198 0.0 0.0 0.00 0.00 0.00 90 1018.0
20260830050032 68 198 0.0 0.0 0.00 0.00 0.00 89 1017.9
20260830044548 68 198 0.0 0.0 0.00 0.00 0.00 87 1017.8
20260830043029 68 198 0.0 0.0 0.00 0.00 0.00 85 1017.9
20260830041528 68 198 0.0 0.0 0.00 0.00 0.00 84 1017.8
20260830040031 69 198 0.0 0.0 0.00 0.00 0.00 82 1017.6
20260830034526 69 198 0.0 0.0 0.00 0.00 0.00 80 1017.5
20260830033023 69 198 0.0 0.0 0.00 0.00 0.00 79 1017.6
20260830031523 69 198 0.0 0.0 0.00 0.00 0.00 79 1017.5
20260830030022 69 198 0.0 0.0 0.00 0.00 0.00 78 1017.7
20260830024521 69 198 0.0 0.0 0.00 0.00 0.00 77 1017.6
20260830023021 69 198 0.0 0.0 0.00 0.00 0.00 77 1017.4
20260830021521 70 198 0.0 0.0 0.00 0.00 0.00 76 1017.6
20260830020020 70 198 0.0 0.0 0.00 0.00 0.00 74 1017.4
20260830014520 70 198 0.0 0.0 0.00 0.00 0.00 74 1017.5
20260830013037 71 198 0.0 0.0 0.00 0.00 0.00 71 1017.4
20260830011535 72 198 0.0 0.0 0.00 0.00 0.00 70 1017.5
20260830010023 72 198 0.0 0.0 0.00 0.00 0.00 68 1017.4
20260830004518 72 198 0.0 0.0 0.00 0.00 0.00 67 1017.3
20260830003017 73 198 0.0 0.0 0.00 0.00 0.00 65 1017.2
20260830001524 73 198 0.0 1.0 0.00 0.00 0.00 64 1017.2